Location: Los Gatos B&B
(42.6926°N, 77.0646°W)
Time: 17:29:54
(UTC-04:00)

SL-16 R/B - Visible Passes

Search period start: 16 September 2014 00:00
Search period end: 26 September 2014 00:00
Orbit: 840 x 850 km, 71.0° (Epoch: 03 September)

Date Brightness Start Highest point End Pass type
(mag) Time Alt. Az. Time Alt. Az. Time Alt. Az.
16 Sep 3.9 03:17:31 26° E 03:17:31 26° E 03:21:42 10° NE visible
16 Sep 2.5 04:59:26 38° W 05:00:55 47° WNW 05:06:24 10° NNE visible
17 Sep 4.1 03:04:19 23° E 03:04:19 23° E 03:07:42 10° NE visible
17 Sep 2.5 04:46:13 46° W 04:46:56 48° WNW 04:52:27 10° NNE visible
18 Sep 4.3 02:51:03 21° ENE 02:51:03 21° ENE 02:53:41 10° NE visible
18 Sep 2.5 04:32:58 50° WNW 04:32:58 50° WNW 04:38:30 10° NNE visible
19 Sep 4.5 02:37:45 18° ENE 02:37:45 18° ENE 02:39:40 10° NE visible
19 Sep 2.6 04:19:39 49° NW 04:19:39 49° NW 04:24:34 10° NNE visible
19 Sep 4.3 06:04:04 10° NW 06:04:33 10° NW 06:05:02 10° NW visible
20 Sep 4.7 02:24:24 15° ENE 02:24:24 15° ENE 02:25:39 10° NE visible
20 Sep 2.9 04:06:18 44° NNW 04:06:18 44° NNW 04:10:37 10° NNE visible
20 Sep 4.3 05:49:35 10° NW 05:50:33 10° NW 05:51:32 10° NNW visible
21 Sep 4.9 02:11:01 12° ENE 02:11:01 12° ENE 02:11:38 10° NE visible
21 Sep 3.2 03:52:55 38° N 03:52:55 38° N 03:56:39 10° NNE visible
21 Sep 4.3 05:35:16 10° NW 05:36:33 11° NW 05:37:50 10° NNW visible
22 Sep 5.1 01:57:36 10° NE 01:57:36 10° NE 01:57:37 10° NE visible
22 Sep 3.5 03:39:30 33° N 03:39:30 33° N 03:42:42 10° NNE visible
22 Sep 4.3 05:21:24 10° NW 05:22:33 11° NW 05:24:05 10° NNW visible
23 Sep 3.8 03:26:03 28° N 03:26:03 28° N 03:28:45 10° NNE visible
23 Sep 4.3 05:07:57 11° NW 05:08:33 11° NW 05:10:18 10° NNW visible
24 Sep 4.1 03:12:35 24° N 03:12:35 24° N 03:14:48 10° NNE visible
24 Sep 4.3 04:54:28 12° NW 04:54:33 12° NW 04:56:29 10° NNW visible
25 Sep 4.4 02:59:05 21° NNE 02:59:05 21° NNE 03:00:51 10° NNE visible
25 Sep 4.4 04:40:58 12° NW 04:40:58 12° NW 04:42:40 10° NNW visible
